Погода в Карасях

Россия / Курганская область     55°25′49″N   64°10′40″E
темп.,
°C
ветер,
м/с
пор.,
м/с
влажн.,
%
обл.,
%
осадки,
мм/ч
давл.,
гПа
погр.,
м
13 июня, вс
вс1323:00+15юв22590 0.0 102412
02:00+13ю336260 0.0 102422
05:00+12ю226726 0.0 102413
08:00+19ю235322 0.0 1025299
11:00+23ю45415 0.0 10251626
14:00+24ю4537100 0.0 10241905
17:00+25ю343799 0.0 10231957
20:00+21ююв225448 0.0 102312
14 июня, пн
пн1423:00+17ююв33555 0.0 102421
02:00+15ю33585 0.0 102429
05:00+14ю346260 0.0 102450
08:00+20ююз4651100 0.0 1024226
11:00+26юз56395 0.0 10241037
14:00+27юз553229 0.0 10232223
17:00+27зюз463717 0.0 10221937
20:00+23юз23578 0.0 102126
15 июня, вт
вт1523:00+19ююз345727 0.0 102043
02:00+17ююз465569 0.0 102077
05:00+17юз476087 0.0 1020118
08:00+22юз5855100 0.0 1020304
11:00+27зюз5743100 0.0 1019989
14:00+28зюз6735100 0.0 10171969
17:00+28зюз4642100 0.0 10172027
20:00+24юз336089 0.0 101549
16 июня, ср
ср1623:00+21зюз486199 0.0 1015115
02:00+19з35686 0.0 101568
05:00+17з227788 0.0 101612
08:00+22зсз2264100 0.0 1016237
11:00+27з2351100 0.0 1016672
14:00+29зюз4640100 0.0 10141909
17:00+28зсз245097 0.0 1013422
20:00+26ю2256100 0.0 101214
17 июня, чт
чт1723:00+19св4984100 0.7 1014207
02:00+17юв3691100 0.1 1012113
05:00+17юз22875 0.1 101237
08:00+23зсз23694 0.0 1011279
11:00+28зюз33485 0.0 10101020
14:00+30зюз443882 0.0 10081753
17:00+30юз453798 0.0 10061493
20:00+26вюв3353100 0.0 100422